Weather History for LHSN - November, 2012

Change the Weather History Date:

Tuesday, November 6, 2012

  Actual Average (LHBP) Record (LHBP)
Temperature  
Mean Temperature 49 °F -  
Max Temperature 57 °F 51 °F 64 °F (2008)
Min Temperature 41 °F 35 °F 26 °F (2007)
Degree Days  
Heating Degree Days 16    
Moisture  
Dew Point 37 °F    
Average Humidity 69    
Maximum Humidity 87    
Minimum Humidity 41    
Precipitation  
Precipitation 0.00 in - - ()
Sea Level Pressure  
Sea Level Pressure 29.94 in    
Wind  
Wind Speed 9 mph ()    
Max Wind Speed 16 mph    
Max Gust Speed 27 mph    
Visibility 6.2 miles    
Events      
Averages and records for this station are not official NWS values.
T = Trace of Precipitation, MM = Missing Value Source: Averaged Metar Reports

Daily Weather History Graph

Daily Weather History Graph

Search for Another Location

Airport or City:

Trip Planner

Search our weather history database for the weather conditions in past years. The results will help you decide how hot, cold, wet, or windy it might be!

Date:

Astronomy

Nov. 06, 2012 Rise Set
Actual Time 6:29 AM CET 4:14 PM CET
Civil Twilight 5:57 AM CET 4:47 PM CET
Nautical Twilight 5:20 AM CET 5:23 PM CET
Astronomical Twilight 4:45 AM CET 5:59 PM CET
Moon 10:38 PM CET (11/6) 12:10 PM CET (11/6)
Length of Visible Light 10h 50m
Length of Day
9h 45m
Waning Gibbous, 56% of the Moon is Illuminated
Nov 6
Waning Gibbous
Nov 7
Last Quarter
Nov 13
New
Nov 20
First Quarter
Nov 28
Full

Hourly Weather History & Observations

Time (CET) Temp. Windchill Dew Point Humidity Pressure Visibility Wind Dir Wind Speed Gust Speed Precip Events Conditions
12:15 AM 44.6 °F 38.2 °F 39.2 °F 81% 29.77 in - West 13.4 mph - N/A   Clear
12:45 AM 42.8 °F 35.9 °F 37.4 °F 81% 29.77 in - West 13.4 mph - N/A   Clear
1:15 AM 42.8 °F 37.6 °F 37.4 °F 81% 29.77 in - West 8.9 mph - N/A   Clear
1:45 AM 42.8 °F 37.6 °F 37.4 °F 81% 29.80 in - West 8.9 mph - N/A   Clear
2:15 AM 42.8 °F 36.7 °F 37.4 °F 81% 29.80 in - West 11.2 mph - N/A   Clear
2:45 AM 42.8 °F 37.6 °F 37.4 °F 81% 29.80 in - West 8.9 mph - N/A   Clear
3:15 AM 42.8 °F 37.6 °F 37.4 °F 81% 29.80 in - West 8.9 mph - N/A   Clear
3:45 AM 42.8 °F 37.6 °F 37.4 °F 81% 29.83 in - West 8.9 mph - N/A   Clear
4:15 AM 41.0 °F 35.4 °F 37.4 °F 87% 29.83 in - West 8.9 mph - N/A   Clear
4:45 AM 42.8 °F 37.6 °F 39.2 °F 87% 29.86 in - West 8.9 mph - N/A   Clear
5:15 AM 42.8 °F 38.7 °F 39.2 °F 87% 29.86 in - West 6.7 mph - N/A   Clear
5:45 AM - - - N/A% - 6.2 mi West 8.9 mph - N/A   Clear
6:15 AM 41.0 °F 35.4 °F 37.4 °F 87% 29.86 in - WSW 8.9 mph - N/A   Clear
6:45 AM 41.0 °F 35.4 °F 37.4 °F 87% 29.89 in - West 8.9 mph - N/A   Clear
7:15 AM 42.8 °F 38.7 °F 37.4 °F 81% 29.89 in - WSW 6.7 mph - N/A   Clear
7:45 AM 42.8 °F 37.6 °F 39.2 °F 87% 29.92 in - WSW 8.9 mph - N/A   Clear
8:15 AM 44.6 °F 39.8 °F 39.2 °F 81% 29.92 in - WSW 8.9 mph - N/A   Clear
8:45 AM - - - N/A% - 6.2 mi WNW 8.9 mph - N/A   Clear
9:15 AM 48.2 °F - 41.0 °F 76% 29.92 in - West 8.9 mph - N/A   Clear
9:45 AM 50.0 °F - 39.2 °F 66% 29.92 in - West 8.9 mph - N/A   Clear
10:15 AM 51.8 °F - 39.2 °F 62% 29.92 in - West 11.2 mph - N/A   Clear
10:45 AM 51.8 °F - 37.4 °F 58% 29.92 in 6.2 mi WNW 13.4 mph 24.6 mph N/A   Partly Cloudy
11:15 AM 53.6 °F - 37.4 °F 54% 29.92 in 6.2 mi West 13.4 mph - N/A   Partly Cloudy
11:45 AM - - - N/A% - 6.2 mi WNW 8.9 mph - N/A   Clear
11:53 AM 55.4 °F - 37.4 °F 51% 29.92 in 6.2 mi West 13.4 mph 26.8 mph N/A   Partly Cloudy
12:15 PM 55.4 °F - 35.6 °F 47% 29.92 in 6.2 mi West 13.4 mph - N/A   Partly Cloudy
12:45 PM 57.2 °F - 35.6 °F 44% 29.92 in 6.2 mi WNW 13.4 mph - N/A   Partly Cloudy
1:15 PM 57.2 °F - 33.8 °F 41% 29.92 in - WNW 15.7 mph - N/A   Clear
1:45 PM 55.4 °F - 33.8 °F 44% 29.92 in - WNW 13.4 mph 24.6 mph N/A   Clear
2:15 PM 55.4 °F - 33.8 °F 44% 29.95 in - West 13.4 mph - N/A   Clear
2:45 PM 53.6 °F - 37.4 °F 54% 29.95 in - West 11.2 mph - N/A   Clear
3:15 PM 53.6 °F - 37.4 °F 54% 29.95 in - West 8.9 mph - N/A   Clear
3:45 PM 51.8 °F - 39.2 °F 62% 29.98 in - West 8.9 mph - N/A   Clear
4:15 PM 51.8 °F - 37.4 °F 58% 29.98 in - West 6.7 mph - N/A   Clear
4:45 PM 50.0 °F - 39.2 °F 66% 29.98 in - West 6.7 mph - N/A   Clear
5:15 PM 50.0 °F - 39.2 °F 66% 30.01 in - West 4.5 mph - N/A   Clear
5:45 PM 48.2 °F - 39.2 °F 71% 30.01 in - West 4.5 mph - N/A   Clear
6:15 PM 50.0 °F - 39.2 °F 66% 30.01 in - West 6.7 mph - N/A   Clear
6:45 PM 48.2 °F - 39.2 °F 71% 30.01 in - West 6.7 mph - N/A   Clear
7:15 PM 48.2 °F - 39.2 °F 71% 30.04 in - West 8.9 mph - N/A   Clear
7:45 PM 48.2 °F - 39.2 °F 71% 30.04 in - West 8.9 mph - N/A   Clear
8:15 PM 48.2 °F - 37.4 °F 66% 30.06 in - WNW 11.2 mph - N/A   Clear
8:45 PM 46.4 °F 42.0 °F 37.4 °F 71% 30.06 in - WNW 8.9 mph - N/A   Clear
9:15 PM 46.4 °F 42.0 °F 35.6 °F 66% 30.06 in - WNW 8.9 mph - N/A   Clear
9:45 PM 44.6 °F 39.8 °F 35.6 °F 71% 30.06 in - West 8.9 mph - N/A   Clear
10:15 PM 42.8 °F 38.7 °F 35.6 °F 76% 30.09 in - West 6.7 mph - N/A   Clear
10:45 PM 42.8 °F 38.7 °F 33.8 °F 70% 30.09 in - West 6.7 mph - N/A   Clear
11:15 PM 42.8 °F 37.6 °F 33.8 °F 70% 30.09 in - WNW 8.9 mph - N/A   Clear
11:45 PM 42.8 °F 37.6 °F 33.8 °F 70% 30.09 in - West 8.9 mph - N/A   Clear